Stations météo

réclame
Mon MeteoGroup
Chillingham Barns, Grande-Bretagne (99196): Température de l'air & dewpoint: 14.06.2019 23:00:00 - 20.06.2019 23:00:00 (BST)Chillingham Barns, Grande-Bretagne (99196): Quantités de précipitations: 14.06.2019 23:00:00 - 20.06.2019 23:00:00 (BST)
Date & Time tt [°C] td [°C] rr [mm]
20.06.2019 23:00:00 9,2 6,2 0,0
20.06.2019 22:00:00 10,2 6,6 0,0
20.06.2019 21:00:00 12,6 7,5 0,0
20.06.2019 20:00:00 13,6 8,7 0,0
20.06.2019 19:00:00 14,8 8,5 0,0
20.06.2019 18:00:00 15,8 8,8 0,2
20.06.2019 17:00:00 12,5 7,5 0,2
20.06.2019 16:00:00 14,9 7,9 0,0
20.06.2019 15:00:00 15,0 5,8 0,0
20.06.2019 14:00:00 16,4 7,1 0,0
20.06.2019 13:00:00 15,8 6,0 0,0
20.06.2019 12:00:00 15,5 7,4 0,0
20.06.2019 11:00:00 14,4 6,4 0,0
20.06.2019 10:00:00 14,3 6,7 0,0
20.06.2019 09:00:00 13,7 7,9 0,0
20.06.2019 08:00:00 13,0 9,1 0,0
20.06.2019 07:00:00 11,8 7,2 0,0
20.06.2019 06:00:00 11,6 9,0 0,0
20.06.2019 05:00:00 11,9 8,7 0,0
20.06.2019 04:00:00 12,4 8,9 0,0
20.06.2019 03:00:00 12,1 8,6 0,0
20.06.2019 02:00:00 12,0 8,2 0,0
20.06.2019 01:00:00 11,9 7,8 0,0
20.06.2019 00:00:00 12,4 7,8 0,0
19.06.2019 23:00:00 12,8 8,7 0,0
19.06.2019 22:00:00 12,6 9,2 0,0
19.06.2019 21:00:00 13,1 9,6 0,0
19.06.2019 20:00:00 15,1 9,7 0,0
19.06.2019 19:00:00 17,8 8,8 0,0
19.06.2019 18:00:00 19,9 9,2 0,0
19.06.2019 17:00:00 16,8 11,8 0,0
19.06.2019 16:00:00 16,9 12,5 0,0
19.06.2019 15:00:00 16,5 12,2 0,0
19.06.2019 14:00:00 15,1 11,0 0,0
19.06.2019 13:00:00 14,9 10,2 0,0
19.06.2019 12:00:00 14,1 10,7 0,0
19.06.2019 11:00:00 13,3 8,8 0,0
19.06.2019 10:00:00 12,7 9,5 0,0
19.06.2019 09:00:00 12,1 10,4 0,2
19.06.2019 08:00:00 10,9 9,8 0,2
19.06.2019 07:00:00 10,2 9,3 0,2
19.06.2019 06:00:00 9,6 8,6 0,0
19.06.2019 05:00:00 9,1 7,7 0,0
19.06.2019 04:00:00 8,9 7,5 0,0
19.06.2019 03:00:00 8,9 7,2 0,0
19.06.2019 02:00:00 8,8 6,8 0,0
19.06.2019 01:00:00 7,9 6,5 0,0
19.06.2019 00:00:00 9,9 6,8 0,0
18.06.2019 23:00:00 10,7 6,6 0,0
18.06.2019 22:00:00 13,1 6,7 0,0
18.06.2019 21:00:00 14,7 7,3 0,0
18.06.2019 20:00:00 16,1 6,8 0,0
18.06.2019 19:00:00 16,7 5,4 0,0
18.06.2019 18:00:00 17,0 5,2 0,0
18.06.2019 17:00:00 17,4 6,3 0,0
18.06.2019 16:00:00 17,4 6,7 0,0
18.06.2019 15:00:00 18,9 8,7 0,0
18.06.2019 14:00:00 19,8 7,9 0,0
18.06.2019 13:00:00 18,9 9,3 0,0
18.06.2019 12:00:00 18,3 8,8 0,0
18.06.2019 11:00:00 17,4 9,2 0,0
18.06.2019 10:00:00 16,3 9,0 0,0
18.06.2019 09:00:00 15,5 10,1 0,0
18.06.2019 08:00:00 14,0 10,4 0,0
18.06.2019 07:00:00 12,1 10,1 0,0
18.06.2019 06:00:00 11,3 9,5 0,0
18.06.2019 05:00:00 10,7 9,2 0,0
18.06.2019 04:00:00 10,2 8,3 0,0
18.06.2019 03:00:00 10,6 8,3 0,0
18.06.2019 02:00:00 9,9 7,7 0,0
18.06.2019 01:00:00 11,1 7,9 0,0
18.06.2019 00:00:00 12,2 8,4 0,0
17.06.2019 23:00:00 12,0 8,1 0,0
17.06.2019 22:00:00 12,7 8,4 0,0
17.06.2019 21:00:00 14,0 8,1 0,0
17.06.2019 20:00:00 15,0 8,1 0,0
17.06.2019 19:00:00 16,0 7,7 0,0
17.06.2019 18:00:00 17,6 7,4 0,0
17.06.2019 17:00:00 17,5 8,3 0,0
17.06.2019 16:00:00 18,2 8,7 0,0
17.06.2019 15:00:00 17,5 7,6 0,0
17.06.2019 14:00:00 16,4 7,0 0,0
17.06.2019 13:00:00 16,2 8,7 0,0
17.06.2019 12:00:00 16,9 10,6 0,0
17.06.2019 11:00:00 15,5 9,6 0,0
17.06.2019 10:00:00 14,7 9,2 0,0
17.06.2019 09:00:00 14,1 8,8 0,0
17.06.2019 08:00:00 13,7 10,3 0,0
17.06.2019 07:00:00 11,9 10,0 0,0
17.06.2019 06:00:00 11,2 9,6 0,0
17.06.2019 05:00:00 10,5 9,0 0,0
17.06.2019 04:00:00 11,6 9,8 0,0
17.06.2019 03:00:00 11,8 10,4 0,0
17.06.2019 02:00:00 12,7 11,5 0,0
17.06.2019 01:00:00 12,5 11,7 1,4
17.06.2019 00:00:00 12,1 11,0 0,2
16.06.2019 23:00:00 12,1 9,6 0,0
16.06.2019 22:00:00 13,1 8,4 0,0
16.06.2019 21:00:00 13,4 8,4 0,0
16.06.2019 20:00:00 14,5 10,1 0,0
16.06.2019 19:00:00 14,1 9,7 0,0
16.06.2019 18:00:00 14,8 10,0 0,2
16.06.2019 17:00:00 16,3 8,3 0,0
16.06.2019 16:00:00 16,3 8,5 0,0
16.06.2019 15:00:00 15,4 7,8 0,0
16.06.2019 14:00:00 14,4 8,1 0,0
16.06.2019 13:00:00 14,9 8,0 0,0
16.06.2019 12:00:00 14,7 7,5 0,0
16.06.2019 11:00:00 15,6 9,5 0,0
16.06.2019 10:00:00 13,5 7,6 0,0
16.06.2019 09:00:00 12,6 7,1 0,0
16.06.2019 08:00:00 11,4 7,3 0,0
16.06.2019 07:00:00 9,1 6,2 0,0
16.06.2019 06:00:00 7,3 4,7 0,0
16.06.2019 05:00:00 7,0 4,9 0,0
16.06.2019 04:00:00 6,6 4,4 0,0
16.06.2019 03:00:00 7,6 5,1 0,0
16.06.2019 02:00:00 7,6 5,4 0,0
16.06.2019 01:00:00 8,6 7,2 0,0
16.06.2019 00:00:00 9,7 9,0 0,0
15.06.2019 23:00:00 11,1 10,6 0,0
15.06.2019 22:00:00 11,3 10,6 0,0
15.06.2019 21:00:00 12,1 11,2 0,0
15.06.2019 20:00:00 12,6 11,8 0,2
15.06.2019 19:00:00 12,5 11,6 1,6
15.06.2019 18:00:00 12,4 11,3 2,0
15.06.2019 17:00:00 14,9 10,9 0,0
15.06.2019 16:00:00 16,8 12,0 0,0
15.06.2019 15:00:00 14,7 11,1 0,0
15.06.2019 14:00:00 14,7 10,2 0,0
15.06.2019 13:00:00 16,0 11,1 0,0
15.06.2019 12:00:00 15,6 11,0 0,0
15.06.2019 11:00:00 15,2 10,9 0,0
15.06.2019 10:00:00 14,6 10,6 0,0
15.06.2019 09:00:00 13,9 10,5 0,0
15.06.2019 08:00:00 12,5 11,3 0,0
15.06.2019 07:00:00 9,3 9,2 0,0
15.06.2019 06:00:00 7,6 7,4 0,0
15.06.2019 05:00:00 7,5 7,0 0,0
15.06.2019 04:00:00 8,2 7,7 0,0
15.06.2019 03:00:00 9,3 8,8 0,0
15.06.2019 02:00:00 8,7 7,8 0,0
15.06.2019 01:00:00 9,0 7,6 0,0
15.06.2019 00:00:00 10,0 8,1 0,0
14.06.2019 23:00:00 10,5 7,9 0,0

tt = Température de l'air
td = dewpoint
rr = Quantités de précipitations

stations d'obs. à proximité